Pearl, MS

4:51 AM CDT on August 25, 2016 (GMT -0500)
Jackson-Evers International

Weather History for KJAN - May, 2013

Change the Weather History Date:

Thursday, May 23, 2013

  Actual Average Record
Temperature  
Mean Temperature 75 °F 74 °F  
Max Temperature 88 °F 85 °F 95 °F (1948)
Min Temperature 62 °F 64 °F 49 °F (2002)
Degree Days  
Heating Degree Days 0 0  
Month to date heating degree days 52 10  
Since 1 July heating degree days 2309 2389  
Cooling Degree Days 10 9  
Month to date cooling degree days 124 156  
Year to date cooling degree days 232 274  
Growing Degree Days 25 (Base 50)    
Moisture  
Dew Point 66 °F    
Average Humidity 73    
Maximum Humidity 100    
Minimum Humidity 46    
Precipitation  
Precipitation 0.00 in 0.14 in 1.61 in (1955)
Month to date precipitation 5.17 3.24  
Year to date precipitation 32.94 22.97  
Sea Level Pressure  
Sea Level Pressure 30.00 in    
Wind  
Wind Speed 2 mph (WSW)    
Max Wind Speed 12 mph    
Max Gust Speed 14 mph    
Visibility 6 miles    
Events Fog    
T = Trace of Precipitation, MM = Missing Value Source: NWS Daily Summary

Daily Weather History Graph

Daily Weather History Graph

Search for Another Location

Airport or City:

Trip Planner

Search our weather history database for the weather conditions in past years. The results will help you decide how hot, cold, wet, or windy it might be!

Date:

Astronomy

May. 23, 2013 Rise Set
Actual Time 5:57 AM CDT 7:56 PM CDT
Civil Twilight 5:30 AM CDT 8:24 PM CDT
Nautical Twilight 4:56 AM CDT 8:57 PM CDT
Astronomical Twilight 4:21 AM CDT 9:33 PM CDT
Moon 6:33 PM CDT (5/23) 4:36 AM CDT (5/23)
Length of Visible Light 14h 54m
Length of Day
13h 59m
Waxing Gibbous, 97% of the Moon is Illuminated
May 23
Waxing Gibbous
May 24
Full
May 31
Last Quarter
Jun 8
New
Jun 16
First Quarter

Hourly Weather History & Observations

Time (CDT) Temp. Heat Index Dew Point Humidity Pressure Visibility Wind Dir Wind Speed Gust Speed Precip Events Conditions
12:54 AM 66.0 °F - 64.0 °F 93% 29.96 in 6.0 mi Calm Calm - N/A   Clear
1:50 AM 64.4 °F - 64.4 °F 100% 29.96 in 1.8 mi Calm Calm - N/A   Clear
1:54 AM 64.9 °F - 64.0 °F 97% 29.95 in 0.5 mi Calm Calm - N/A Fog Fog
2:09 AM 66.2 °F - 64.4 °F 94% 29.96 in 2.0 mi Calm Calm - N/A   Clear
2:21 AM 66.2 °F - 64.4 °F 94% 29.96 in 4.0 mi Calm Calm - N/A   Clear
2:43 AM 64.4 °F - 62.6 °F 94% 29.96 in 1.2 mi Calm Calm - N/A   Clear
2:45 AM 64.4 °F - 62.6 °F 94% 29.96 in 0.8 mi Calm Calm - N/A   Mist
2:54 AM 64.9 °F - 64.0 °F 97% 29.96 in 0.2 mi Calm Calm - N/A Fog Fog
3:06 AM 64.4 °F - 64.4 °F 100% 29.97 in 0.5 mi Calm Calm - N/A Fog Fog
3:15 AM 66.2 °F - 64.4 °F 94% 29.97 in 0.2 mi Calm Calm - N/A Fog Fog
3:22 AM 66.2 °F - 66.2 °F 100% 29.97 in 1.2 mi Calm Calm - N/A   Partly Cloudy
3:25 AM 66.2 °F - 66.2 °F 100% 29.97 in 3.0 mi Calm Calm - N/A   Partly Cloudy
3:54 AM 66.0 °F - 66.0 °F 100% 29.96 in 5.0 mi Calm Calm - N/A   Clear
4:43 AM 64.4 °F - 62.6 °F 94% 29.98 in 1.5 mi Calm Calm - N/A   Clear
4:54 AM 64.9 °F - 64.0 °F 97% 29.97 in 1.5 mi Calm Calm - N/A   Clear
4:58 AM 64.4 °F - 62.6 °F 94% 29.98 in 3.0 mi Calm Calm - N/A   Clear
5:54 AM 64.0 °F - 63.0 °F 96% 29.99 in 3.0 mi Calm Calm - N/A   Clear
6:54 AM 66.0 °F - 64.9 °F 96% 30.01 in 3.0 mi Calm Calm - N/A   Clear
7:54 AM 71.1 °F - 69.1 °F 93% 30.02 in 9.0 mi South 3.5 mph - N/A   Clear
8:01 AM 71.6 °F - 69.8 °F 94% 30.04 in 9.0 mi Calm Calm - N/A   Scattered Clouds
8:12 AM 71.6 °F - 69.8 °F 94% 30.04 in 9.0 mi SW 3.5 mph - N/A   Mostly Cloudy
8:54 AM 73.0 °F - 70.0 °F 90% 30.04 in 7.0 mi SSW 3.5 mph - N/A   Overcast
9:54 AM 73.9 °F - 70.0 °F 87% 30.04 in 8.0 mi Calm Calm - N/A   Overcast
10:22 AM 75.2 °F - 69.8 °F 83% 30.05 in 9.0 mi Calm Calm - N/A   Mostly Cloudy
10:54 AM 78.1 °F - 70.0 °F 76% 30.05 in 10.0 mi Calm Calm - N/A   Mostly Cloudy
11:01 AM 78.8 °F - 69.8 °F 74% 30.07 in 10.0 mi Variable 3.5 mph - N/A   Scattered Clouds
11:54 AM 80.1 °F 82.7 °F 68.0 °F 67% 30.05 in 10.0 mi Variable 3.5 mph - N/A   Mostly Cloudy
12:01 PM 82.4 °F 85.4 °F 68.0 °F 62% 30.06 in 10.0 mi Calm Calm - N/A   Partly Cloudy
12:54 PM 82.9 °F 84.6 °F 64.9 °F 54% 30.04 in 10.0 mi Calm Calm - N/A   Partly Cloudy
1:54 PM 84.9 °F 86.6 °F 64.9 °F 51% 30.04 in 10.0 mi West 3.5 mph - N/A   Partly Cloudy
2:54 PM 86.0 °F 87.6 °F 64.9 °F 49% 30.02 in 10.0 mi SW 8.1 mph - N/A   Scattered Clouds
3:54 PM 88.0 °F 89.6 °F 64.9 °F 46% 30.00 in 10.0 mi West 6.9 mph - N/A   Mostly Cloudy
4:54 PM 86.0 °F 87.6 °F 64.9 °F 49% 30.00 in 10.0 mi West 8.1 mph - N/A   Scattered Clouds
5:54 PM 87.1 °F 89.2 °F 66.0 °F 49% 29.99 in 10.0 mi NW 6.9 mph - N/A   Scattered Clouds
6:54 PM 84.0 °F 86.5 °F 66.9 °F 56% 29.99 in 10.0 mi North 6.9 mph - N/A   Partly Cloudy
7:54 PM 77.0 °F - 69.1 °F 76% 30.00 in 10.0 mi Calm Calm - N/A   Clear
8:54 PM 75.0 °F - 69.1 °F 82% 30.02 in 10.0 mi Calm Calm - N/A   Partly Cloudy
9:54 PM 73.9 °F - 69.1 °F 85% 30.04 in 10.0 mi Calm Calm - N/A   Scattered Clouds
10:54 PM 72.0 °F - 68.0 °F 87% 30.05 in 10.0 mi Calm Calm - N/A   Clear
11:54 PM 71.1 °F - 68.0 °F 90% 30.05 in 10.0 mi Calm Calm - N/A   Clear